sat.trackr.live / text

‹ back to catalog

STARLINK-1131

NORAD 45047 · 2020-006D

PAYLOAD ACTIVE UNKNOWN

§ Identity

Operator
Country
US
Launch date
2020-01-29
Launch site
AFETR
Launch vehicle
Mass (kg)
RCS (m²)

Purposes: comms

External: N2YO · Heavens-Above · Gunter

§ Orbital elements

Epoch: 2026-05-25T04:36:36.097344Z

Period
92.88 min
Inclination
53.1571°
Eccentricity
0.0002762
Mean motion
15.50401499 rev/d
Perigee alt
413.7 km
Apogee alt
417.4 km
Semi-major
6,793.7 km
B*
1.1340e-3
RAAN
281.1074°
Arg perigee
318.0881°
Mean anomaly
41.9916°
Rev number
34,832

§ Raw data

STARLINK-11311 45047U 20006D   26145.19208446  .00065656  00000+0  11340-2 0  99982 45047  53.1571 281.1074 0002762 318.0881  41.9916 15.50401499348321

JSON: /api/v1/satellites/45047 · /tle

For live sub-satellite position, see the globe view (requires WebGL).

§ Visibility from observer

Set your observer location to see the next 7 days of passes ≥ 10°. The values pass through the URL so the page stays shareable.

No JS? Fill the form by hand. The geolocation button needs JavaScript.